RNA1549 EGKK-EGLL

Flight info

Callsign RNA1549
Flight time N/A
Altitude 15000
Route EGKK NOVMA MID OCK EGLL
Aircraft B737/M-VGDW/C

Departure

Time 2026-05-04 14:44
Airport London Gatwick Airport (EGKK)

Arrival

Time N/A
Airport London Heathrow Airport (EGLL)
Time Latitude Longitude Altitude Speed Heading
2026-05-04 14:20 51.15370 -0.19257 197 ft 0 kts 77°
2026-05-04 14:36 51.15371 -0.19256 197 ft 1 kts 77°
2026-05-04 14:36 51.15381 -0.19255 197 ft 1 kts 292°
2026-05-04 14:37 51.15375 -0.19283 197 ft 3 kts 243°
2026-05-04 14:37 51.15356 -0.19342 197 ft 10 kts 237°
2026-05-04 14:37 51.15289 -0.19364 197 ft 10 kts 171°
2026-05-04 14:37 51.15217 -0.19339 197 ft 10 kts 167°
2026-05-04 14:38 51.15159 -0.19319 197 ft 6 kts 167°
2026-05-04 14:38 51.15125 -0.19307 197 ft 4 kts 167°
2026-05-04 14:38 51.15060 -0.19305 197 ft 13 kts 208°
2026-05-04 14:38 51.15031 -0.19429 197 ft 11 kts 258°
2026-05-04 14:39 51.15012 -0.19564 197 ft 13 kts 258°
2026-05-04 14:39 51.14990 -0.19728 197 ft 16 kts 258°
2026-05-04 14:39 51.14964 -0.19922 197 ft 19 kts 257°
2026-05-04 14:40 51.14901 -0.20385 197 ft 22 kts 258°
2026-05-04 14:40 51.14871 -0.20608 197 ft 18 kts 258°
2026-05-04 14:40 51.14846 -0.20787 197 ft 14 kts 256°
2026-05-04 14:40 51.14827 -0.20921 197 ft 10 kts 257°
2026-05-04 14:41 51.14814 -0.21012 197 ft 6 kts 257°
2026-05-04 14:41 51.14805 -0.21074 197 ft 7 kts 257°
2026-05-04 14:41 51.14757 -0.21349 197 ft 10 kts 252°
2026-05-04 14:42 51.14719 -0.21391 197 ft 2 kts 180°
2026-05-04 14:42 51.14671 -0.21368 197 ft 7 kts 152°
2026-05-04 14:42 51.14540 -0.21269 197 ft 20 kts 128°
2026-05-04 14:43 51.14522 -0.21141 197 ft 0 kts 80°
2026-05-04 14:43 51.14538 -0.21015 197 ft 52 kts 78°
2026-05-04 14:43 51.14697 -0.19886 206 ft 154 kts 77°
2026-05-04 14:44 51.14944 -0.18032 928 ft 185 kts 80°
2026-05-04 14:44 51.15197 -0.15853 1736 ft 219 kts 79°
2026-05-04 14:44 51.15482 -0.13411 2479 ft 231 kts 79°
2026-05-04 14:44 51.15772 -0.10914 3171 ft 236 kts 79°
2026-05-04 14:45 51.16071 -0.08339 3847 ft 239 kts 79°
2026-05-04 14:45 51.16374 -0.05736 4521 ft 241 kts 79°
2026-05-04 14:45 51.16682 -0.03083 5202 ft 244 kts 79°
2026-05-04 14:45 51.16804 -0.00406 5832 ft 246 kts 90°
2026-05-04 14:46 51.16821 0.02372 5995 ft 251 kts 89°
2026-05-04 14:46 51.17048 0.05117 6003 ft 260 kts 71°
2026-05-04 14:46 51.17950 0.07656 6013 ft 271 kts 51°
2026-05-04 14:46 51.19389 0.09546 6011 ft 269 kts 29°
2026-05-04 14:47 51.21161 0.10423 6292 ft 267 kts
2026-05-04 14:47 51.23030 0.10180 6641 ft 272 kts 344°
2026-05-04 14:47 51.24699 0.08876 7066 ft 272 kts 323°
2026-05-04 14:47 51.25946 0.06601 7541 ft 273 kts 305°
2026-05-04 14:48 51.27044 0.04121 8066 ft 277 kts 304°
2026-05-04 14:48 51.28109 0.01584 8563 ft 279 kts 303°
2026-05-04 14:48 51.29193 -0.01024 9069 ft 281 kts 303°
2026-05-04 14:48 51.30266 -0.03611 9567 ft 283 kts 303°
2026-05-04 14:49 51.31352 -0.06231 10068 ft 285 kts 303°
2026-05-04 14:49 51.32453 -0.08892 10572 ft 287 kts 303°
2026-05-04 14:49 51.33550 -0.11547 10967 ft 292 kts 303°
2026-05-04 14:49 51.34666 -0.14250 10999 ft 292 kts 303°
2026-05-04 14:50 51.35791 -0.16975 11012 ft 290 kts 303°
2026-05-04 14:50 51.36898 -0.19661 11017 ft 289 kts 303°
2026-05-04 14:50 51.37996 -0.22328 11018 ft 289 kts 303°
2026-05-04 14:50 51.39108 -0.25030 11018 ft 289 kts 303°
2026-05-04 14:51 51.40212 -0.27717 11018 ft 289 kts 303°
2026-05-04 14:51 51.40933 -0.29473 11018 ft 289 kts 303°